星链-6379 (STARLINK-6379 )

导读

STARLINK-6379是美国SpaceX公司星链计划中的一颗卫星,于2023年7月16日发射升空。星链计划旨在构建全球卫星互联网星座,为全球偏远地区等提供高速互联网接入服务,该卫星的入轨进一步扩充了星链星座的规模,推进了全球网络覆盖的建设进程。

Basic Information
目录编号:
57343
目录名称:
STARLINK-6379
国际标识:
2023-099R
轨道中心:
EARTH
卫星名称:
星链-6379
卫星全名:
星链-6379 (STARLINK-6379 )
卫星状态:
在轨 (已飞行1154 天)
发射日期:
2023-07-16 UTC
国别 :
美国 (US)
星等 :
--
This satellite is enrolled in the Space Conjunction Data Service (SCDS) and the current flight risk assessment level is: High Risk
Orbit Information
数据来源 国际轨道数据
星历时间: 2026-09-12T10:40:38+0800
16小时前
查看轨道信息
半长轴: 6861.199km
偏心率: 0.0001099
轨道倾角: 43.001°
近地点辐角 275.145°
升交点赤经 279.893°
平近点角 84.927°
近地点: 482.307km
远地点: 483.817km
周期: 94.267分钟
每日圈数: 15.275758
Detailed Information
固有亮度:
5
最大亮度:
2.5
卫星平台:
Starlink v1.5
覆盖范围:
全球
运营商:
太空探索技术公司
运营商所在国:
美国
制造商(研发单位):
太空探索技术公司
制造商所在国:
美国
使用方式:
暂无
Satellite Introduction
星链(Starlink)计划是由太空探索技术公司(SpaceX)提出的一个巨型低轨卫星互联网星座项目,计划在2019年至2024年间在太空搭建由约1.2万颗卫星组成的“星链”网络,其中1584颗将部署在地球上空550千米处的近地轨道,并从2020年开始工作。该卫星仍在工作。
2D Orbit Map
3D Orbit Map
Orbit Altitude Analysis Chart
Orbit Inclination Analysis Chart
Orbit Comprehensive Analysis Chart
View Comprehensive Chart
Conjunction Data List
Event ID Objects TCA Miss Dist (km) Collision Risk Probability Collision Risk Index (CRI) Action
CDM_260915-000405-734306-733421
2026-09-15T
00:04:34+0000
0.452 km
远距离
9.024993E-5 中风险 0.74
CDM_260914-153405-734306-717221
2026-09-14T
15:34:59+0000
0.641 km
远距离
5.457849E-5 中风险 0.7
CDM_260915-022505-734306-733421
2026-09-15T
02:25:48+0000
0.859 km
远距离
1.286167E-5 中风险 0.57
CDM_260914-130905-734306-783822
2026-09-14T
13:09:19+0000
0.796 km
远距离
1.210215E-5 中风险 0.57
CDM_260915-014605-734306-717221
2026-09-15T
01:46:59+0000
1.225 km
极远距离
6.368257E-6 低风险 0.51
CDM_260914-104805-734306-783822
2026-09-14T
10:48:06+0000
0.962 km
远距离
6.360585E-6 低风险 0.51
CDM_260914-222705-734306-726621
OBJECT U (67266)
2026-09-14T
22:27:12+0000
1.482 km
极远距离
5.294734E-6 低风险 0.49
CDM_260914-170905-734306-717221
2026-09-14T
17:09:09+0000
1.686 km
极远距离
2.308564E-6 低风险 0.42
CDM_260915-001205-734306-717221
2026-09-15T
00:12:50+0000
1.804 km
极远距离
1.915992E-6 低风险 0.41
CDM_260914-091305-734306-783822
2026-09-14T
09:13:56+0000
1.423 km
极远距离
1.765996E-6 低风险 0.4
Miss Distance Evolution Trend with All Objects
Collision Probability Evolution Trend with All Objects